Probability
4 4 4 3 1 0 0 0 0 0 0 0 0 0 0 0 0 0 0 0 0 0 0 0 0 0 0 0 0 1 2 2 1 1 1 1 2 3 4 5 5 4 3
4 5 5 3 2 0 0 0 0 0 0 0 0 0 0 0 0 0 0 0 0 0 0 0 0 0 0 0 0 1 2 2 2 2 2 2 2 2 3 5 6 5 4
4 6 6 3 1 0 0 0 0 0 0 0 0 0 0 0 0 0 0 0 0 0 0 0 0 0 0 0 0 0 1 1 1 2 1 1 1 1 1 2 4 5 6
4 6 6 4 1 0 0 0 0 0 0 0 0 0 0 0 0 0 0 0 0 0 0 0 0 0 0 0 0 0 0 0 0 0 1 1 1 1 1 1 1 3 5
4 6 6 5 3 1 0 0 0 0 0 0 0 0 0 0 0 0 0 0 0 0 0 0 0 0 0 0 0 1 0 0 0 0 0 0 1 1 2 2 2 3 4
4 5 6 6 5 3 1 0 0 0 0 0 0 0 0 0 0 0 0 0 0 0 0 0 0 0 0 0 0 0 0 0 0 0 0 0 0 1 1 2 3 3 3
2 4 5 6 6 4 2 1 0 0 0 0 0 0 0 0 0 0 0 0 0 0 0 0 0 0 0 0 0 0 0 0 0 0 0 0 0 0 0 1 1 2 2
1 3 4 5 5 4 2 1 0 0 0 0 0 0 0 0 0 0 0 0 0 0 0 0 0 0 0 0 0 0 0 0 0 0 0 0 0 0 0 0 0 1 1
1 2 3 4 4 3 1 0 0 0 0 0 0 0 0 0 0 0 0 0 0 0 0 0 0 0 0 0 0 0 0 0 0 0 0 0 0 0 0 0 0 0 0
1 2 2 3 2 1 0 0 0 0 0 0 0 0 0 0 0 0 0 0 0 0 0 0 0 0 0 0 0 0 0 0 0 0 0 0 0 0 0 0 0 0 0
0 1 1 1 1 0 0 0 0 0 0 0 0 0 0 0 0 0 0 0 0 0 0 0 0 0 0 0 0 0 0 0 0 0 0 0 0 0 0 0 0 0 0
0 0 0 0 0 0 0 0 0 0 0 0 0 0 0 0 0 0 0 0 0 0 0 0 0 0 0 0 0 0 0 0 0 0 0 0 0 0 0 0 0 0 0
0 0 0 0 0 0 0 0 0 0 0 0 0 0 0 0 0 0 0 0 0 0 0 0 0 0 0 0 0 0 0 0 0 0 0 0 0 0 0 0 0 0 0
0 0 0 0 0 0 0 0 0 0 0 0 0 0 0 0 0 0 0 0 0 0 0 0 0 0 0 0 0 0 0 0 0 0 0 0 0 0 0 0 0 0 0
0 0 0 0 0 0 0 0 0 0 0 0 0 0 0 0 0 0 0 0 0 0 0 0 0 0 0 0 0 0 0 0 0 0 0 0 0 0 0 0 0 0 0
0 0 0 0 0 0 0 0 0 0 0 0 0 0 0 0 0 0 0 0 0 0 0 0 0 0 0 0 0 0 0 0 0 0 0 0 0 0 0 0 0 0 0
0 0 0 0 0 0 0 0 0 0 0 0 0 0 0 0 0 0 0 0 0 0 0 0 0 0 0 0 0 0 0 0 0 0 0 0 0 0 0 0 0 0 0
0 0 0 0 0 0 0 0 0 0 0 0 0 0 0 0 0 0 0 0 0 0 0 0 0 0 0 0 0 0 0 0 0 0 0 0 0 0 0 0 0 0 0
0 0 0 0 0 0 0 0 0 0 0 0 0 0 0 0 0 0 0 0 0 0 0 0 0 0 0 0 0 0 0 0 0 0 0 0 0 0 0 0 0 0 0
0 0 0 0 0 0 0 0 0 0 0 0 0 0 0 0 0 0 0 0 0 0 0 0 0 0 0 0 0 0 0 0 0 0 0 0 0 0 0 0 0 0 0
0 0 0 0 0 0 0 0 0 0 0 0 0 0 0 0 0 0 0 0 0 0 0 0 0 0 0 0 0 0 0 0 0 0 0 0 0 0 0 0 0 0 0
0 0 0 0 0 0 0 0 0 0 0 0 0 0 0 0 0 0 0 0 0 0 0 0 0 0 0 0 0 0 0 0 0 0 0 0 0 0 0 0 0 0 0
0 0 0 0 0 0 0 0 0 0 0 0 0 0 0 0 0 0 0 0 0 0 0 0 0 0 0 0 0 0 0 0 0 0 0 0 0 0 0 0 0 0 0
0 0 0 0 0 0 0 0 0 0 0 0 0 0 0 0 0 0 0 0 0 0 0 0 0 0 0 0 0 0 0 0 0 0 0 0 0 0 0 0 0 0 0
0 0 0 0 0 0 0 0 0 0 0 0 0 0 0 0 0 0 0 0 0 0 0 0 0 0 0 0 0 0 0 0 0 0 0 0 0 0 0 0 0 0 0
0 0 0 0 0 0 0 0 0 0 0 0 0 0 0 0 0 0 0 0 0 0 0 0 0 0 0 0 0 0 0 0 0 0 0 0 0 0 0 0 0 0 0
Wind_Speed
1 1 1 1 2 1 1 2 2 2 2 2 2 2 2 2 2 3 3 6 7 8 8 7 7 7 7 7 6 6 7 7 7 8 8 8 7 7 6 6 6 6 6
1 2 2 2 1 1 1 2 2 2 2 2 2 2 3 3 3 3 3 4 7 7 8 8 8 8 7 7 7 8 8 8 8 8 8 9 8 7 7 7 6 6 6
2 2 2 2 1 2 2 2 2 2 2 2 2 3 3 3 3 3 3 2 2 5 7 8 9 9 9 8 8 8 8 8 9 9 9 9 9 8 7 7 7 7 7
3 2 2 2 2 2 2 2 2 2 2 2 2 2 2 2 3 3 3 3 2 3 5 8 9 9 9 9 9 8 8 8 8 9 9 9 9 9 8 8 7 7 7
3 2 2 2 2 2 2 2 2 2 2 2 1 1 1 1 1 2 3 3 3 3 2 4 7 8 9 10 10 10 8 8 8 9 9 9 9 9 9 8 8 8 8
3 2 1 2 2 2 2 2 2 2 1 1 2 1 0 1 1 2 2 2 3 3 3 3 3 4 8 9 10 10 10 9 9 8 8 9 9 9 9 9 9 9 9
2 2 1 2 2 1 1 2 2 2 1 2 2 1 1 1 2 2 2 2 2 3 3 3 3 2 2 7 9 10 10 10 9 8 8 8 9 9 9 9 9 9 9
1 1 2 1 1 1 2 2 2 1 1 2 1 1 2 1 1 1 2 2 1 2 2 3 3 3 2 2 5 9 10 10 10 9 9 9 9 9 9 9 9 9 9
1 1 1 1 1 1 1 1 1 1 1 1 1 1 1 1 2 1 1 1 1 1 1 1 2 2 3 2 2 5 9 10 10 10 9 9 9 10 10 10 10 9 9
2 1 1 1 1 1 1 1 2 1 0 1 1 0 1 1 0 2 2 0 0 1 1 1 1 1 2 2 3 6 8 9 9 9 9 9 10 10 10 10 10 10 9
1 1 1 0 0 0 1 1 1 1 1 0 1 1 1 1 1 1 3 2 2 1 1 1 1 1 1 1 1 4 7 8 9 9 9 9 9 10 11 10 10 9 9
1 2 1 1 1 1 1 0 1 1 1 1 1 1 1 1 1 1 2 2 3 2 2 1 2 1 1 1 1 4 6 8 9 9 9 9 9 10 10 10 10 10 9
1 2 2 1 1 2 2 1 1 2 2 2 2 1 1 1 1 1 1 2 3 2 2 2 2 2 1 1 0 3 5 7 8 9 9 9 9 9 10 10 10 10 9
2 2 2 2 2 2 2 2 2 2 2 2 3 2 2 2 1 1 2 1 2 3 2 2 1 2 1 1 0 2 3 7 8 9 9 8 9 9 9 9 9 9 9
1 2 2 2 3 3 3 3 2 3 2 3 3 3 2 2 2 2 2 2 2 3 3 2 1 1 1 1 1 1 2 6 8 9 8 8 8 8 8 8 8 9 9
2 2 3 3 3 3 3 3 3 3 3 3 3 3 3 2 2 2 2 2 3 3 4 2 1 1 1 1 2 2 3 7 8 8 8 8 7 8 8 8 8 8 8
2 3 3 3 3 4 3 3 4 4 4 3 3 3 4 3 3 3 2 2 3 3 4 4 2 2 2 2 2 2 3 3 3 8 8 8 8 8 8 8 8 8 8
2 2 2 3 3 3 3 3 3 3 4 4 4 4 4 3 4 3 3 4 3 3 4 5 3 2 3 3 3 3 3 3 3 6 8 9 9 9 8 9 9 8 8
2 2 2 2 2 2 2 3 3 3 3 4 4 4 4 4 4 3 4 4 3 4 3 4 4 3 3 3 2 3 3 3 4 5 7 8 9 9 10 10 9 9 8
2 2 2 2 2 2 2 2 2 3 3 3 4 4 4 4 5 4 4 4 3 3 3 3 4 3 3 3 2 2 3 3 3 4 5 6 8 10 10 10 9 8 8
2 2 2 2 2 2 2 3 2 3 3 3 3 4 4 5 7 6 4 4 4 3 3 3 4 3 3 3 3 2 3 3 4 3 2 3 4 3 5 8 9 9 9
2 2 2 3 3 3 3 4 4 3 3 3 4 4 4 5 7 9 10 8 6 5 5 4 4 5 5 4 3 3 2 2 4 2 1 4 3 4 4 3 8 10 10
2 2 3 3 3 4 5 5 6 4 4 4 4 4 4 4 6 4 6 9 9 11 10 6 6 7 5 4 3 3 3 4 5 3 2 5 3 4 4 5 10 10 10
2 2 3 3 3 4 5 6 6 4 4 5 5 5 5 5 5 5 4 5 5 7 8 7 7 6 5 4 4 4 4 4 4 3 2 4 4 4 4 4 9 10 10
2 2 2 3 3 4 6 6 6 3 3 5 5 5 5 5 8 9 5 5 5 6 8 10 10 10 11 10 7 3 2 3 5 4 2 3 3 3 3 3 5 8 9
2 2 3 4 4 5 6 6 5 2 3 4 4 4 7 7 9 9 5 5 7 6 5 5 7 8 8 8 10 5 4 4 4 4 2 2 2 2 4 3 2 2 4
Wind_Direction
59 53 69 52 38 8 353 328 336 341 355 1 4 29 25 32 54 76 81 69 56 41 30 25 23 22 18 18 24 30 28 28 29 27 22 15 9 1 352 346 335 324 313
58 62 66 53 26 358 343 339 355 1 5 12 12 24 33 31 43 55 73 70 59 46 33 27 26 22 19 23 32 36 34 31 28 24 21 15 9 2 354 350 344 336 323
42 62 68 56 9 353 358 5 1 9 8 18 20 30 39 29 46 56 55 56 51 47 40 33 29 29 26 25 30 35 33 29 24 18 16 11 7 2 355 351 346 339 333
35 51 61 49 13 9 12 5 12 10 12 20 13 15 41 34 42 66 67 57 48 51 45 44 38 34 30 29 28 27 27 25 21 16 13 9 5 1 357 354 352 349 342
36 54 52 40 25 22 16 4 17 19 17 8 345 357 52 65 37 58 72 70 64 60 56 50 47 41 35 30 25 21 19 19 17 15 11 7 3 0 358 355 355 352 347
36 43 51 43 29 36 19 12 7 11 15 343 331 344 129 125 88 71 68 73 70 61 55 53 48 37 36 31 23 17 13 13 13 12 7 6 3 1 358 355 354 352 348
44 48 42 46 41 42 22 19 9 4 5 3 9 334 282 169 128 128 91 71 67 64 61 58 51 38 28 32 22 15 7 4 3 6 7 6 4 359 356 357 355 355 353
56 57 54 55 57 43 29 26 15 5 352 26 41 357 338 333 327 132 111 102 85 71 67 61 55 40 34 38 19 16 5 358 358 0 3 3 1 354 353 352 351 351 351
103 74 44 51 59 70 68 31 21 31 343 334 55 85 61 297 320 298 212 138 123 98 92 89 74 47 32 36 20 11 5 357 355 356 360 2 358 353 350 349 350 352 353
115 105 76 35 47 75 69 24 39 356 16 310 326 356 199 177 237 310 304 287 160 168 166 115 87 63 44 35 24 16 5 356 353 354 358 360 357 355 353 352 350 350 350
139 150 156 171 196 88 84 44 15 337 333 274 275 297 305 305 226 216 279 295 304 269 207 169 146 146 73 54 32 19 6 355 350 350 351 354 354 352 352 352 350 350 351
182 178 183 195 191 180 170 198 249 277 280 293 287 264 215 238 279 259 268 284 283 269 250 210 176 170 147 80 31 12 353 348 344 342 345 349 351 350 347 346 347 349 351
198 197 188 206 199 204 212 211 238 260 260 259 257 259 259 242 239 256 261 276 291 285 252 231 200 167 158 129 74 347 336 337 336 334 336 341 344 343 341 339 340 342 345
200 184 191 212 217 211 219 215 229 241 237 241 254 254 255 260 237 219 217 242 295 292 267 251 215 171 148 140 245 321 313 322 323 323 323 331 334 333 331 331 332 334 336
202 184 200 218 226 218 217 219 225 237 235 233 238 245 244 247 235 230 225 199 203 259 277 264 230 197 174 166 256 279 277 300 310 312 314 319 323 323 321 324 325 326 325
207 205 217 221 226 223 220 220 232 236 237 240 229 235 247 244 236 223 218 226 211 214 252 273 262 259 242 252 265 272 266 291 302 306 307 309 312 314 315 316 318 320 320
212 214 219 221 226 226 221 221 229 230 233 243 237 229 241 241 236 228 223 224 228 215 245 274 278 280 271 270 284 272 268 266 270 288 295 298 301 303 306 308 310 312 314
219 220 223 226 231 229 226 224 236 230 224 231 236 233 238 238 237 230 224 225 229 225 229 259 274 270 265 260 257 266 273 267 258 275 284 290 291 295 298 298 300 303 306
214 217 218 227 235 233 230 230 233 240 235 233 232 232 237 232 239 235 231 231 234 240 230 240 262 263 267 268 270 278 276 275 276 273 278 282 284 288 290 289 291 293 297
203 215 224 229 231 235 231 233 235 245 248 247 241 235 235 230 233 231 233 231 230 239 242 243 255 263 263 265 251 264 283 273 276 279 277 281 284 285 284 283 284 287 290
213 215 223 236 235 230 226 223 234 245 250 256 256 245 238 233 233 234 237 227 218 224 234 242 253 261 259 256 247 245 262 282 283 261 266 278 281 274 273 274 277 277 281
225 222 226 232 236 234 232 240 240 245 251 253 257 256 251 246 243 248 253 250 233 225 227 234 247 250 255 247 245 245 252 281 286 272 272 281 264 263 259 248 265 273 276
228 232 234 232 239 238 238 247 250 247 251 252 252 253 255 248 250 238 252 260 258 254 246 237 239 244 250 245 241 251 244 248 257 258 276 280 267 265 262 265 271 271 271
233 238 241 242 248 250 243 247 253 244 247 251 247 243 243 247 239 231 231 245 247 251 250 246 244 250 249 244 229 233 239 256 268 265 234 270 277 269 277 268 265 264 268
252 250 250 252 258 265 256 251 251 237 248 258 256 250 244 242 248 247 238 244 256 258 255 247 245 249 253 260 257 248 247 263 277 273 223 241 271 287 282 268 258 262 273
248 261 265 258 256 261 264 256 249 230 251 263 265 259 252 250 253 253 241 237 255 262 260 263 254 256 256 257 257 238 219 239 261 271 229 219 259 300 297 281 264 267 276